Coolangatta Observation History
Time Wind Speed Temp Pressure Rel. Hum Rain
20/10:30am ESE 14-21 kts 24.2°c 1023.2 hPa 77% 0.8mm
20/10:00am SE 14-20 kts 24.1°c 1023.4 hPa 77% 0.8mm
20/09:43am SE 11-20 kts 24.0°c 1023.4 hPa 85% 0.8mm
20/09:33am SSE 4-7 kts 21.9°c 1023.4 hPa 93% 0.8mm
20/09:30am SSE 4-6 kts 21.8°c 1023.4 hPa 93% 0.8mm
20/09:12am ESE 11-17 kts 21.6°c 1023.6 hPa 90% 0.6mm
20/09:00am SSE 7-13 kts 21.8°c 1023.6 hPa 87% 8.8mm
20/08:30am SSE 8-11 kts 23.9°c 1023.4 hPa 77% 8.8mm
20/08:00am ESE 16-21 kts 22.6°c 1023.3 hPa 79% 8.8mm
20/07:30am E 11-19 kts 22.1°c 1022.9 hPa 86% 8.8mm
20/07:00am S 7-11 kts 21.5°c 1022.6 hPa 89% 8.8mm
20/06:30am S 5-6 kts 20.8°c 1022.3 hPa 92% 8.8mm
20/06:00am SSW 6-8 kts 20.8°c 1021.9 hPa 92% 8.8mm
20/05:30am S 5-7 kts 20.5°c 1021.8 hPa 92% 8.8mm
20/05:00am SSE 6-8 kts 20.9°c 1021.6 hPa 90% 8.8mm
20/04:30am SE 10-13 kts 21.2°c 1021.5 hPa 87% 8.8mm
20/04:00am SSE 5-7 kts 20.6°c 1021.5 hPa 92% 8.6mm
20/03:30am SSE 6-9 kts 20.9°c 1021.4 hPa 89% 8.6mm
20/03:01am SSW 4-6 kts 20.8°c 1021.5 hPa 88% 8.6mm
20/03:00am SSW 5-6 kts 20.9°c 1021.5 hPa 88% 8.6mm
20/02:43am SE 10-17 kts 21.6°c 1021.6 hPa 82% 8.4mm
20/02:30am SE 9-11 kts 22.4°c 1021.7 hPa 77% 6.6mm
20/02:00am ESE 11-19 kts 22.4°c 1021.8 hPa 76% 6.6mm
20/01:30am ESE 14-19 kts 22.8°c 1022.0 hPa 79% 6.6mm
20/01:00am ESE 11-15 kts 22.6°c 1022.3 hPa 81% 6.6mm
20/12:30am ESE 11-15 kts 23.1°c 1022.4 hPa 78% 6.6mm
20/12:00am ESE 9-13 kts 22.8°c 1022.6 hPa 78% 6.6mm
Time Wind Speed Temp Pressure Rel. Hum Rain
19/11:30pm ESE 12-18 kts 23.0°c 1022.9 hPa 76% 6.6mm
19/11:00pm ESE 12-18 kts 23.0°c 1023.1 hPa 78% 6.6mm
19/10:30pm ESE 15-20 kts 23.0°c 1023.1 hPa 77% 6.6mm
19/10:00pm SE 10-14 kts 22.0°c 1023.2 hPa 84% 6.6mm
19/09:30pm SE 8-13 kts 21.8°c 1023.4 hPa 90% 6.6mm
19/09:15pm ESE 10-14 kts 21.9°c 1023.2 hPa 89% 6.6mm
19/09:00pm ESE 15-24 kts 20.9°c 1023.3 hPa 90% 6.6mm
19/08:49pm ESE 14-23 kts 21.9°c 1023.4 hPa 85% 3.4mm
19/08:30pm SE 12-16 kts 22.6°c 1023.2 hPa 83% 2.8mm
19/08:00pm ESE 12-17 kts 23.0°c 1023.0 hPa 81% 2.8mm
19/07:30pm SE 10-14 kts 22.1°c 1022.7 hPa 85% 2.8mm
19/07:00pm ESE 12-16 kts 22.3°c 1022.5 hPa 87% 2.8mm
19/06:30pm ESE 14-19 kts 22.3°c 1022.3 hPa 83% 2.2mm
19/06:00pm ESE 14-20 kts 22.8°c 1022.3 hPa 81% 2.2mm
19/05:30pm ESE 13-19 kts 22.7°c 1022.0 hPa 83% 2.2mm
19/05:00pm SE 10-15 kts 22.3°c 1021.6 hPa 90% 2.2mm
19/04:49pm SSE 7-9 kts 21.7°c 1021.6 hPa 94% 2.0mm
19/04:30pm SE 13-18 kts 21.7°c 1021.7 hPa 91% 1.2mm
19/04:00pm ESE 14-20 kts 24.3°c 1021.5 hPa 72% 0.6mm
19/03:30pm SE 15-20 kts 25.0°c 1021.3 hPa 70% 0.6mm
19/03:00pm SE 14-20 kts 24.5°c 1021.3 hPa 73% 0.6mm
19/02:30pm SE 15-21 kts 24.9°c 1021.5 hPa 75% 0.2mm
19/02:00pm SE 17-23 kts 25.3°c 1021.6 hPa 70% 0.2mm
19/01:57pm SE 17-23 kts 25.2°c 1021.6 hPa 71% 0.2mm
19/01:30pm S 9-13 kts 24.4°c 1021.5 hPa 78% 0.2mm
19/01:00pm SSE 11-14 kts 23.1°c 1021.6 hPa 84% 0.2mm
19/12:30pm SSE 13-17 kts 21.7°c 1022.5 hPa 85% 0.2mm
19/12:25pm SE 15-23 kts 22.1°c 1022.6 hPa 85% 0.2mm
19/12:16pm SE 14-26 kts 23.2°c 1022.6 hPa 76% 0.2mm
19/12:00pm SSE 13-21 kts 23.6°c 1022.7 hPa 83% 0.0mm
19/11:30am SSE 11-17 kts 23.5°c 1023.1 hPa 82% 0.0mm
19/11:00am SSE 11-16 kts 23.9°c 1023.4 hPa 77% 0.0mm
19/10:30am S 10-14 kts 23.6°c 1023.8 hPa 84% 0.0mm
19/10:00am S 11-16 kts 22.6°c 1024.1 hPa 83% 0.0mm
19/09:30am SSE 11-17 kts 22.9°c 1024.2 hPa 84% 0.0mm
19/09:00am S 9-14 kts 21.2°c 1024.3 hPa 90% 4.6mm
19/08:30am SSW 10-15 kts 21.1°c 1024.3 hPa 89% 3.6mm
19/08:00am SSW 9-15 kts 20.4°c 1023.9 hPa 90% 3.6mm
19/07:30am SSW 9-12 kts 20.3°c 1023.7 hPa 91% 3.6mm
19/07:00am SSW 9-13 kts 20.1°c 1023.4 hPa 90% 3.6mm
19/06:30am SSW 9-13 kts 19.9°c 1023.0 hPa 91% 3.6mm
19/06:00am SSW 7-10 kts 19.5°c 1022.7 hPa 93% 3.6mm
19/05:30am SSW 7-10 kts 19.5°c 1022.4 hPa 92% 3.6mm
19/05:00am SSW 8-11 kts 19.7°c 1022.2 hPa 91% 3.4mm
19/04:30am SSW 8-11 kts 19.7°c 1022.1 hPa 92% 3.4mm
19/04:08am SSW 7-11 kts 19.7°c 1021.8 hPa 93% 3.2mm
19/04:00am SW 7-9 kts 19.7°c 1021.8 hPa 93% 3.2mm
19/03:50am SSW 7-11 kts 19.8°c 1022.0 hPa 93% 3.2mm
19/03:30am SSW 6-9 kts 19.7°c 1022.0 hPa 93% 2.0mm
19/03:00am SSW 6-8 kts 19.7°c 1022.1 hPa 93% 1.8mm
19/02:30am S 8-11 kts 19.8°c 1022.3 hPa 93% 1.8mm
19/02:00am SSW 7-11 kts 19.8°c 1022.5 hPa 93% 1.4mm
19/01:30am SSW 6-8 kts 19.9°c 1022.9 hPa 91% 1.2mm
19/01:00am S 6-9 kts 20.3°c 1023.2 hPa 89% 1.2mm
19/12:30am SSW 9-14 kts 20.1°c 1023.2 hPa 89% 1.2mm
19/12:00am SSW 7-9 kts 19.9°c 1023.3 hPa 91% 1.2mm
Time Wind Speed Temp Pressure Rel. Hum Rain
18/11:30pm SSW 8-10 kts 20.0°c 1023.4 hPa 91% 1.2mm
18/11:00pm SSW 8-11 kts 20.3°c 1023.7 hPa 87% 1.2mm
18/10:30pm SSW 5-7 kts 20.2°c 1023.8 hPa 88% 1.2mm
18/10:00pm SSW 6-9 kts 20.2°c 1023.7 hPa 89% 1.2mm
18/09:30pm SSW 7-10 kts 20.2°c 1023.9 hPa 89% 1.0mm
18/09:00pm SSE 3-4 kts 20.0°c 1023.7 hPa 91% 1.0mm
18/08:30pm SSW 5-8 kts 20.2°c 1023.4 hPa 90% 1.0mm
18/08:00pm SSW 8-11 kts 20.5°c 1023.2 hPa 88% 0.8mm
18/07:30pm SSW 8-11 kts 20.5°c 1022.9 hPa 88% 0.8mm
18/07:00pm SSW 5-8 kts 20.4°c 1022.7 hPa 89% 0.8mm
18/06:30pm S 7-11 kts 21.3°c 1022.6 hPa 84% 0.2mm
18/06:00pm SSW 7-10 kts 21.6°c 1022.1 hPa 80% 0.0mm
18/05:30pm SSW 7-10 kts 22.1°c 1021.7 hPa 75% 0.0mm
18/05:00pm SSW 7-9 kts 22.9°c 1021.4 hPa 71% 0.0mm
18/04:30pm S 10-17 kts 23.5°c 1021.2 hPa 69% 0.0mm
18/04:00pm SSE 13-19 kts 23.8°c 1021.0 hPa 65% 0.0mm
18/03:30pm SE 14-18 kts 25.0°c 1020.9 hPa 62% 0.0mm
18/03:00pm SSE 13-20 kts 25.6°c 1020.9 hPa 56% 0.0mm
18/02:30pm SSE 14-19 kts 26.0°c 1021.0 hPa 55% 0.0mm
18/02:00pm SSE 13-19 kts 25.5°c 1020.9 hPa 62% 0.0mm
18/01:30pm SE 14-18 kts 26.1°c 1021.0 hPa 60% 0.0mm
18/01:00pm SSE 11-15 kts 25.8°c 1021.3 hPa 53% 0.0mm
18/12:30pm S 10-17 kts 26.3°c 1021.6 hPa 58% 0.0mm
18/12:00pm SSE 11-16 kts 24.5°c 1022.0 hPa 61% 0.0mm
18/11:30am SSE 10-13 kts 25.6°c 1022.3 hPa 60% 0.0mm
18/11:00am S 10-17 kts 24.9°c 1022.8 hPa 61% 0.0mm
18/10:30am S 11-14 kts 24.9°c 1023.0 hPa 62% 0.0mm
18/10:00am SSW 10-15 kts 24.7°c 1023.2 hPa 65% 0.0mm
18/09:30am SSW 9-15 kts 23.8°c 1023.1 hPa 66% 0.0mm
18/09:00am SSW 11-16 kts 23.4°c 1023.1 hPa 69% 0.2mm
18/08:30am SSW 10-14 kts 22.5°c 1023.0 hPa 71% 0.2mm
18/08:00am SSW 10-15 kts 21.4°c 1022.9 hPa 74% 0.2mm
18/07:30am SSW 9-13 kts 20.7°c 1022.5 hPa 77% 0.2mm
18/07:00am SSW 7-11 kts 19.2°c 1022.3 hPa 83% 0.2mm
18/06:30am SSW 8-12 kts 19.0°c 1021.9 hPa 83% 0.2mm
18/06:00am SSW 6-9 kts 18.6°c 1021.5 hPa 85% 0.2mm
18/05:30am SSW 7-10 kts 18.9°c 1021.3 hPa 84% 0.2mm
18/05:00am SSW 8-12 kts 19.0°c 1021.2 hPa 84% 0.2mm
18/04:30am SSW 6-9 kts 18.7°c 1021.1 hPa 85% 0.2mm
18/04:00am SSW 9-13 kts 19.1°c 1021.0 hPa 84% 0.2mm
18/03:30am SSW 8-11 kts 19.0°c 1020.9 hPa 85% 0.2mm
18/03:00am S 7-9 kts 18.9°c 1021.1 hPa 85% 0.2mm
18/02:30am SSW 7-12 kts 19.2°c 1021.2 hPa 85% 0.2mm
18/02:00am SSW 7-11 kts 19.2°c 1021.5 hPa 84% 0.2mm
18/01:30am SSW 7-10 kts 19.4°c 1021.6 hPa 84% 0.2mm
18/01:00am SSW 6-9 kts 19.4°c 1021.8 hPa 83% 0.2mm
18/12:30am SSW 7-11 kts 19.7°c 1021.9 hPa 83% 0.2mm
18/12:00am SSW 7-10 kts 19.8°c 1022.2 hPa 82% 0.2mm